User: anonymous   Login
Location: Unspecified
(0.0000°N, 0.0000°E)
Time: 17:01:21
(UTC+01:00)
Language:

Iridium 4 Rocket - Orbit

View from above orbital plane
View from above orbital plane
View from above satellite
View from above satellite

Ground track
Ground track

The orbit data is extracted from the following two-line orbital elements,

1 24797U 97020F   17019.51367549  .00000138  00000-0  23089-4 0  9993
2 24797  86.8932  47.8242 0227866  93.0214  68.1270 14.43941619 36492
Epoch (UTC): 19 January 2017 12:19:41
Eccentricity: 0.0227866
inclination: 86.8932°
perigee height: 583 km
apogee height: 908 km
right ascension of ascending node: 47.8242°
argument of perigee: 93.0214°
revolutions per day: 14.43941619
mean anomaly at epoch: 68.1270°
orbit number at epoch: 3649

The dashed part of the orbit path shows where the satellite is in the earth's shadow,  

DLR